FW6138 Weather Reports


Display with metric or nautical units.
time (UTC)temp
F
wind
direction
speed
MPH
gust
MPH
rain 1hr
in
rain 24hr
in
rain mn
in
humidity
%
barometer
mb
20260902064538 61 278 3.0 9.0 0.00 0.00 0.00 75 1013.2
20260902063036 61 289 5.0 12.0 0.00 0.00 0.00 74 1013.2
20260902060031 62 301 6.0 16.0 0.00 0.00 0.00 73 1013.2
20260902054535 62 294 6.0 14.0 0.00 0.00 0.00 72 1013.2
20260902051535 62 305 5.0 14.0 0.00 0.00 0.00 72 1013.1
20260902050029 62 282 3.0 9.0 0.00 0.00 0.00 71 1012.9
20260902044530 62 289 5.0 15.0 0.00 0.00 0.00 71 1012.7
20260902043035 63 302 6.0 16.0 0.00 0.00 0.00 71 1012.6
20260902041530 63 301 5.0 13.0 0.00 0.00 0.00 71 1012.4
20260902040029 63 307 7.0 15.0 0.00 0.00 0.00 71 1012.3
20260902034536 61 294 4.0 11.0 0.00 0.00 0.00 73 1012.2
20260902031608 62 271 0.0 3.0 0.00 0.00 0.00 72 1012.1
20260902030107 63 247 2.0 7.0 0.00 0.00 0.00 71 1012.2
20260902024530 63 280 5.0 12.0 0.00 0.00 0.00 70 1012.1
20260902023030 64 299 6.0 12.0 0.00 0.00 0.00 69 1011.8
20260902021537 64 301 6.0 15.0 0.00 0.00 0.00 67 1011.8
20260902020030 65 297 6.0 16.0 0.00 0.00 0.00 65 1011.7
20260902014529 66 299 7.0 22.0 0.00 0.00 0.00 63 1011.6
20260902013033 67 300 8.0 17.0 0.00 0.00 0.00 63 1011.5
20260902011529 66 296 7.0 15.0 0.00 0.00 0.00 63 1011.4
20260902010038 67 303 7.0 17.0 0.00 0.00 0.00 62 1011.3
20260902003037 66 308 9.0 20.0 0.00 0.00 0.00 63 1011.0
20260902001538 67 309 11.0 23.0 0.00 0.00 0.00 63 1010.9
20260902000037 66 306 8.0 20.0 0.00 0.00 0.00 64 1011.0
20260901234530 66 308 10.0 21.0 0.00 0.00 0.00 64 1011.1
20260901233058 67 307 10.0 23.0 0.00 0.00 0.00 63 1011.0
20260901231531 67 308 10.0 22.0 0.00 0.00 0.00 64 1011.0
20260901224533 68 301 11.0 28.0 0.00 0.00 0.00 62 1011.0
20260901223042 69 303 12.0 28.0 0.00 0.00 0.00 61 1010.7
20260901221535 69 302 11.0 25.0 0.00 0.00 0.00 60 1010.6
20260901220036 69 300 10.0 21.0 0.00 0.00 0.00 61 1010.5
20260901214537 69 304 11.0 23.0 0.00 0.00 0.00 62 1010.4
20260901213030 68 310 10.0 28.0 0.00 0.00 0.00 62 1010.5
20260901211536 67 313 12.0 24.0 0.00 0.00 0.00 63 1010.6
20260901210037 67 299 12.0 25.0 0.00 0.00 0.00 63 1010.7
20260901204537 68 292 10.0 25.0 0.00 0.00 0.00 63 1010.8
20260901203036 67 296 11.0 25.0 0.00 0.00 0.00 63 1010.9
20260901201538 68 299 10.0 25.0 0.00 0.00 0.00 63 1011.0
20260901200037 67 305 8.0 20.0 0.00 0.00 0.00 64 1011.1
20260901194533 67 308 9.0 19.0 0.00 0.00 0.00 65 1011.3
20260901193030 67 311 9.0 18.0 0.00 0.00 0.00 65 1011.7
20260901191538 67 309 8.0 19.0 0.00 0.00 0.00 66 1011.9
20260901184537 66 308 8.0 17.0 0.00 0.00 0.00 67 1012.1
20260901183029 66 314 7.0 19.0 0.00 0.00 0.00 68 1012.2
20260901181531 65 305 6.0 14.0 0.00 0.00 0.00 70 1012.3
20260901180108 64 303 7.0 19.0 0.00 0.00 0.00 71 1012.5
20260901173031 64 309 6.0 14.0 0.00 0.00 0.00 72 1012.5
20260901171531 63 299 5.0 14.0 0.00 0.00 0.00 74 1012.5
20260901163031 60 295 5.0 10.0 0.00 0.00 0.00 79 1012.6
20260901161531 60 295 4.0 10.0 0.00 0.00 0.00 80 1012.7
20260901160032 60 285 2.0 7.0 0.00 0.00 0.00 82 1012.6
20260901154645 59 285 2.0 5.0 0.00 0.00 0.00 83 1012.5
20260901153112 58 278 3.0 9.0 0.00 0.00 0.00 85 1012.6
20260901151531 57 274 3.0 7.0 0.00 0.00 0.00 86 1012.5
20260901150111 57 290 3.0 7.0 0.00 0.00 0.00 89 1012.4
20260901144539 56 295 2.0 6.0 0.00 0.00 0.00 91 1012.3
20260901141531 55 283 1.0 6.0 0.00 0.00 0.00 93 1012.2
20260901133029 52 154 0.0 3.0 0.00 0.00 0.00 94 1011.7
20260901131530 52 137 1.0 4.0 0.00 0.00 0.00 94 1011.5
20260901123030 52 239 0.0 3.0 0.00 0.00 0.00 93 1011.2
20260901121539 52 229 0.0 4.0 0.00 0.00 0.00 94 1011.3
20260901120106 51 202 0.0 6.0 0.00 0.00 0.00 93 1011.2
20260901114531 51 181 1.0 4.0 0.00 0.00 0.00 93 1011.2
20260901113030 51 137 0.0 3.0 0.00 0.00 0.00 93 1011.1
20260901111535 51 165 2.0 4.0 0.00 0.00 0.00 93 1011.1
20260901110030 50 224 1.0 3.0 0.00 0.00 0.00 93 1011.0
20260901104530 50 195 0.0 3.0 0.00 0.00 0.00 92 1011.1
20260901103031 50 197 0.0 3.0 0.00 0.00 0.00 92 1011.0
20260901101531 50 157 2.0 3.0 0.00 0.00 0.00 92 1011.0
20260901100104 50 179 1.0 3.0 0.00 0.00 0.00 92 1010.9
20260901094530 51 204 1.0 3.0 0.00 0.00 0.00 92 1010.9
20260901093029 51 191 1.0 3.0 0.00 0.00 0.00 92 1011.0
20260901091603 51 157 1.0 3.0 0.00 0.00 0.00 92 1010.9
20260901090030 51 157 1.0 3.0 0.00 0.00 0.00 91 1010.7
20260901084530 51 157 0.0 2.0 0.00 0.00 0.00 90 1010.8
20260901083029 51 157 0.0 2.0 0.00 0.00 0.00 90 1011.0
20260901081533 52 164 1.0 3.0 0.00 0.00 0.00 90 1010.9
20260901080038 52 255 1.0 5.0 0.00 0.00 0.00 90 1010.8
20260901074530 52 214 0.0 3.0 0.00 0.00 0.00 90 1010.7
20260901073032 52 180 0.0 3.0 0.00 0.00 0.00 90 1010.6
20260901071530 52 171 1.0 3.0 0.00 0.00 0.00 89 1010.6